Poughkeepsie, NY

7:18 PM EDT on September 25, 2017 (GMT -0400)
Dutchess County

Weather History for KPOU - January, 2015

Change the Weather History Date:

Sunday, January 25, 2015

  Actual Average Record
Temperature  
Mean Temperature 29 °F 26 °F  
Max Temperature 38 °F 36 °F 60 °F (2010)
Min Temperature 20 °F 15 °F -10 °F (1961)
Degree Days  
Heating Degree Days 36 39  
Month to date heating degree days 982 991  
Since 1 July heating degree days 3033 3320  
Cooling Degree Days 0 0  
Month to date cooling degree days 0 0  
Year to date cooling degree days 0 0  
Moisture  
Dew Point 15 °F    
Average Humidity 51    
Maximum Humidity 70    
Minimum Humidity 32    
Precipitation  
Precipitation 0.00 in 0.10 in 1.42 in (2010)
Month to date precipitation 2.77 2.50  
Year to date precipitation 2.77 2.50  
Sea Level Pressure  
Sea Level Pressure 29.75 in    
Wind  
Wind Speed 9 mph (WNW)    
Max Wind Speed 21 mph    
Max Gust Speed 27 mph    
Visibility 10 miles    
Events      
T = Trace of Precipitation, MM = Missing Value Source: NWS Daily Summary

Daily Weather History Graph

Daily Weather History Graph

Search for Another Location

Airport or City:

Trip Planner

Search our weather history database for the weather conditions in past years. The results will help you decide how hot, cold, wet, or windy it might be!

Date:

Astronomy

Jan. 25, 2015 Rise Set
Actual Time 7:13 AM EST 5:02 PM EST
Civil Twilight 6:44 AM EST 5:32 PM EST
Nautical Twilight 6:10 AM EST 6:05 PM EST
Astronomical Twilight 5:37 AM EST 6:38 PM EST
Moon 10:13 AM EST 11:29 PM EST
Length of Visible Light 10h 47m
Length of Day
9h 48m
Waxing Crescent, 34% of the Moon is Illuminated
Jan 25
Waxing Crescent
Jan 26
First Quarter
Feb 3
Full
Feb 11
Last Quarter
Feb 18
New

Hourly Weather History & Observations

Time (EST) Temp. Windchill Dew Point Humidity Pressure Visibility Wind Dir Wind Speed Gust Speed Precip Events Conditions
12:53 AM 33.1 °F - 24.1 °F 70% 29.46 in 10.0 mi Calm Calm - N/A   Overcast
1:53 AM 34.0 °F 27.2 °F 25.0 °F 70% 29.48 in 10.0 mi WSW 8.1 mph - N/A   Mostly Cloudy
2:53 AM 34.0 °F 26.6 °F 25.0 °F 70% 29.51 in 10.0 mi SW 9.2 mph - N/A   Scattered Clouds
3:53 AM 35.1 °F 26.9 °F 25.0 °F 67% 29.52 in 10.0 mi SW 11.5 mph - N/A   Scattered Clouds
4:53 AM 34.0 °F 25.5 °F 25.0 °F 70% 29.54 in 10.0 mi WSW 11.5 mph - N/A   Scattered Clouds
5:53 AM 35.1 °F 27.4 °F 26.1 °F 70% 29.56 in 10.0 mi SW 10.4 mph - N/A   Overcast
6:53 AM 35.1 °F 27.9 °F 26.1 °F 70% 29.59 in 10.0 mi SW 9.2 mph - N/A   Overcast
7:53 AM 35.1 °F 28.6 °F 26.1 °F 70% 29.61 in 10.0 mi SW 8.1 mph - N/A   Mostly Cloudy
8:53 AM 37.0 °F 27.4 °F 19.9 °F 50% 29.65 in 10.0 mi West 17.3 mph 27.6 mph N/A   Scattered Clouds
9:53 AM 37.9 °F 30.0 °F 18.0 °F 45% 29.69 in 10.0 mi West 12.7 mph 26.5 mph N/A   Clear
10:53 AM 37.0 °F 29.3 °F 16.0 °F 42% 29.73 in 10.0 mi WNW 11.5 mph 25.3 mph N/A   Clear
11:53 AM 37.0 °F 27.7 °F 15.1 °F 41% 29.73 in 10.0 mi West 16.1 mph 21.9 mph N/A   Clear
12:53 PM 36.0 °F 27.5 °F 14.0 °F 41% 29.76 in 10.0 mi West 12.7 mph - N/A   Clear
1:53 PM 37.0 °F 28.5 °F 12.0 °F 36% 29.78 in 10.0 mi West 13.8 mph - N/A   Clear
2:53 PM 37.0 °F 28.9 °F 10.0 °F 33% 29.79 in 10.0 mi NW 12.7 mph - N/A   Clear
3:53 PM 35.1 °F 28.6 °F 9.0 °F 34% 29.81 in 10.0 mi West 8.1 mph - N/A   Clear
4:53 PM 34.0 °F 28.8 °F 10.0 °F 37% 29.83 in 10.0 mi WNW 5.8 mph - N/A   Clear
5:53 PM 30.9 °F 27.5 °F 8.1 °F 38% 29.88 in 10.0 mi NNW 3.5 mph - N/A   Clear
6:53 PM 30.0 °F 23.2 °F 8.1 °F 40% 29.91 in 10.0 mi North 6.9 mph - N/A   Clear
7:53 PM 25.0 °F 16.3 °F 6.1 °F 45% 29.96 in 10.0 mi NNE 8.1 mph - N/A   Clear
8:53 PM 23.0 °F 13.9 °F 3.9 °F 44% 29.99 in 10.0 mi NE 8.1 mph - N/A   Clear
9:53 PM 19.9 °F 11.1 °F 3.0 °F 48% 30.01 in 10.0 mi NNE 6.9 mph - N/A   Clear
10:53 PM 19.9 °F 12.1 °F 1.9 °F 46% 30.05 in 10.0 mi NNE 5.8 mph - N/A   Clear
11:53 PM 19.9 °F 10.1 °F 3.0 °F 48% 30.04 in 10.0 mi NNE 8.1 mph - N/A   Clear